User: anonymous   Login
Location: Unspecified
(17.6330°N, 0.0000°E)
Time: 15:53:54
(UTC+00:00)
Language:

Transit 2A Rocket - Orbit

View from above orbital plane
View from above orbital plane
View from above satellite
View from above satellite

Ground track
Ground track

The orbit data is extracted from the following two-line orbital elements,

1    47U 60007C   19293.83342714 -.00000031 +00000-0 +18167-4 0  9992
2    47 066.6655 078.3612 0221479 120.3415 241.9797 14.42054143099987
Epoch (UTC): 20 October 2019 20:00:08
Eccentricity: 0.0221479
inclination: 66.6655°
perigee height: 594 km
apogee height: 909 km
right ascension of ascending node: 78.3612°
argument of perigee: 120.3415°
revolutions per day: 14.42054143
mean anomaly at epoch: 241.9797°
orbit number at epoch: 9998

The dashed part of the orbit path shows where the satellite is in the earth's shadow,  

DLR